Simultaneous Nadir Overpasses (SNOs) Predictions

Prediction of SNOs between AQUA and GOES-15 Satellite Orbit:

Table of predicted SNOs for the next 14.0 days since TLE Epoch: 6/6/2020
Index Date Time (AQUA) AQUA Lat,Lon GOES-15 Lat,Lon Distance(km) Time Diff (sec)
1 06/07/2020 22:04:16 0.19,-127.17 0.00,-127.93 87.60 48
2 06/08/2020 10:25:31 0.93,-132.32 0.01,-127.94 497.28 80
3 06/09/2020 21:52:04 0.78,-124.21 0.00,-127.88 417.61 80
4 06/10/2020 10:13:19 0.34,-129.36 0.01,-127.89 167.43 80
5 06/12/2020 10:01:08 -0.30,-126.40 0.01,-127.83 162.37 80
6 06/12/2020 22:22:32 -0.82,-131.59 -0.02,-127.79 432.30 80
7 06/14/2020 09:48:56 -0.89,-123.44 0.01,-127.77 492.03 80
8 06/14/2020 22:10:20 -0.22,-128.63 -0.02,-127.73 102.56 80
9 06/16/2020 21:58:09 0.44,-125.68 -0.02,-127.67 226.76 80
10 06/17/2020 10:19:24 0.70,-130.83 0.03,-127.68 357.76 80
11 06/19/2020 10:07:12 0.10,-127.86 0.02,-127.61 29.68 80




NCC Satellite Simultaneous Nadir Overpasses (SNOs) Prediction Service
